This demonstration page uses our WeatherBlox Daily Observations layout. Learn more.

Left ArrowRight Arrow

Hourly Observations for October 8, 2019

Temp ( °F °C ) Dew Point ( °F °C ) Humidity (%) Winds ( mph kmh ) Pressure ( in mb ) Visibility ( mi km ) Precip ( " mm )
12:53 am 00:53 Clear 68 20 61 16.1 78 78 NE 3 6 30.00 1016 10 16 0.00 0.00
1:53 am 01:53 Mostly Clear 67 19.4 62 16.7 84 84 Calm 30.00 1016 10 16 0.00 0.00
2:53 am 02:53 Clear 65 18.3 62 16.7 90 90 Calm 29.99 1016 10 16 0.00 0.00
3:53 am 03:53 Clear 65 18.3 62 16.7 90 90 Calm 29.98 1015 10 16 0.00 0.00
4:53 am 04:53 Cloudy 65 18.3 62 16.7 90 90 NNE 3 6 29.98 1015 10 16 0.00 0.00
5:53 am 05:53 Cloudy 65 18.3 62 16.7 90 90 NNW 6 9 30.00 1016 10 16 0.00 0.00
6:41 am 06:41 Mostly Cloudy 64 17.8 61 16.1 90 90 NNW 5 7 30.03 1017 10 16 0.00 0.00
6:53 am 06:53 Cloudy 64 17.8 61 16.1 90 90 NNW 5 7 30.01 1016 10 16 0.00 0.00
7:53 am 07:53 Mostly Cloudy 64 17.8 60 15.6 87 87 Calm 30.02 1017 10 16 0.00 0.00
8:53 am 08:53 Mostly Sunny 65 18.3 60 15.6 84 84 N 5 7 30.03 1017 10 16 0.00 0.00
9:53 am 09:53 Cloudy 67 19.4 60 15.6 79 79 VRB 3 6 30.04 1017 10 16 0.00 0.00
10:53 am 10:53 Cloudy with Light Rain 65 18.3 63 17.2 93 93 NW 3 6 30.06 1018 5 8 0.07 1.78
11:18 am 11:18 Cloudy 67 19.4 63 17.2 87 87 Calm 30.06 1018 10 16 0.00 0.00
11:53 am 11:53 Cloudy 70 21.1 65 18.3 84 84 NW 3 6 30.05 1018 10 16 0.00 0.00
12:53 pm 12:53 Cloudy 73 22.8 65 18.3 76 76 WNW 5 7 30.04 1017 10 16 0.00 0.00
1:53 pm 13:53 Mostly Cloudy 75 23.9 65 18.3 71 71 Calm 30.01 1016 10 16 0.00 0.00
2:53 pm 14:53 Mostly Sunny 77 25 65 18.3 66 66 WNW 7 11 29.98 1015 10 16 0.00 0.00
3:53 pm 15:53 Mostly Sunny 81 27.2 62 16.7 53 53 VRB 3 6 29.97 1015 10 16 0.00 0.00
4:53 pm 16:53 Mostly Cloudy 82 27.8 61 16.1 49 49 VRB 3 6 29.96 1015 10 16 0.00 0.00
5:53 pm 17:53 Mostly Sunny 81 27.2 60 15.6 49 49 NNW 5 7 29.96 1015 10 16 0.00 0.00
6:53 pm 18:53 Partly Cloudy 79 26.1 62 16.7 56 56 NNW 3 6 29.98 1015 10 16 0.00 0.00
7:53 pm 19:53 Clear 74 23.3 63 17.2 69 69 Calm 29.98 1015 10 16 0.00 0.00
8:53 pm 20:53 Cloudy 70 21.1 64 17.8 82 82 Calm 30.00 1016 10 16 0.00 0.00
9:53 pm 21:53 Mostly Clear 69 20.6 64 17.8 84 84 Calm 30.02 1017 10 16 0.00 0.00
10:53 pm 22:53 Mostly Cloudy 68 20 64 17.8 87 87 NE 3 6 30.04 1017 10 16 0.00 0.00
11:53 pm 23:53 Mostly Cloudy 71 21.7 65 18.3 81 81 E 8 13 30.05 1018 10 16 0.00 0.00

Powered by AerisWeather